Location: Amsterdam
(30.7274°N, 84.4357°W)
Time: 20:20:18
(UTC+00:00)

Altair - Pass Details

Date: 06 August 2024
Orbit: 1501 x 1682 km, 47.2° (Epoch: 07 September)

Event Time Altitude Azimuth Distance (km) Brightness Sun altitude
Rises 16:00:33 0° 191° (S) 4,908 10.2 62.5°
Reaches altitude 10° 16:04:25 10° 179° (S) 3,909 10.0 63.3°
Maximum altitude 16:12:17 27° 127° (SE) 2,768 9.8 64.7°
Drops below altitude 10° 16:19:56 10° 74° (ENE) 3,822 10.0 66.2°
Sets 16:23:37 0° 63° (ENE) 4,780 10.2 66.8°
